Flag for Czech Republic Weather past 2 weeks in Liberec, Czech Republic

Now
38 °F

Light rain. Low clouds.


Feels Like: 35 °F
Forecast: 36 / 46 °F
Wind: 5 mph from Southeast

Location: Liberec

Current Time: Mar 29, 2015 at 10:00:32 AM

Latest Report: Mar 29, 2015 at 9:00 AM


Visibility: 2 mi

Pressure: 29.80 "Hg

Humidity: 94%

Dew point: 37 °F

Location of LiberecLocation

Historic Weather in Liberec — Graph

°F

Liberec temperature yesterday

Maximum temperature yesterday: 45 °F (at 2:00 PM)
Minimum temperature yesterday: 35 °F (at 7:00 PM)
Average temperature yesterday: 40 °F

Past Weeks' High & Low Weather Summary

 TemperatureHumidityPressure
High64 °F (Mar 25, 2:00 PM)100% (Mar 15, 7:00 AM)30.46 "Hg (Mar 15, 7:00 AM)
Low25 °F (Mar 22, 11:00 PM)18% (Mar 18, 2:00 PM)29.66 "Hg (Mar 26, 3:00 AM)
Average42 °F69%30.14 "Hg
* Reported Mar 14 7:00 AM — Mar 29 8:00 AM, Liberec, Weather by CustomWeather, © 2015

Note: Actual official high and low records may vary slightly from our data, if they occured in-between our weather recording intervals... More about our weather records

Advertising

Liberec weather history for previous 24 hours

 ConditionsComfort  
Time TempWeatherWind HumidityBarometerVisibility
8:00 AM
Sun, Mar 29
38 °FLight rain. Low clouds.3 mph96%29.82 "Hg2 mi
7:00 AM37 °FLight rain. Cloudy.5 mph92%29.83 "Hg2 mi
6:00 AM38 °FChilly.5 mph81%29.85 "Hg7 mi
5:00 AM39 °FChilly.5 mph74%29.87 "Hg9 mi
4:00 AM39 °FChilly.2 mph70%29.89 "Hg12 mi
3:00 AM39 °FChilly.5 mph70%29.91 "Hg11 mi
1:00 AM39 °FChilly.2 mph75%29.93 "Hg10 mi
12:00 AM38 °FChilly.3 mph79%29.97 "Hg7 mi
11:00 PM
Sat, Mar 28
37 °FChilly.5 mph80%29.99 "Hg7 mi
10:00 PM37 °FChilly.3 mph82%30.01 "Hg7 mi
9:00 PM37 °FClear.3 mph83%30.03 "Hg7 mi
8:00 PM36 °FFog.2 mph87%30.06 "Hg6 mi
7:00 PM35 °FFog.2 mph83%30.07 "Hg6 mi
6:00 PM43 °FQuite cool.2 mph63%30.05 "Hg11 mi
5:00 PM44 °FQuite cool.No wind59%30.06 "Hg12 mi
4:00 PM44 °FOvercast.2 mph57%30.06 "Hg16 mi
3:00 PM44 °FOvercast.2 mph62%30.08 "Hg14 mi
2:00 PM45 °FOvercast.2 mph66%30.10 "Hg11 mi
1:00 PM43 °FOvercast.3 mph72%30.13 "Hg9 mi
12:00 PM40 °FOvercast.1 mph89%30.16 "Hg4 mi
11:00 AM39 °FFog.3 mph88%30.17 "Hg2 mi
10:00 AM39 °FFog.2 mph86%30.18 "Hg5 mi
Weather by CustomWeather, © 2015

See weather overviewHow to use our weather pages